This demonstration page uses our WeatherBlox Daily Observations layout. Learn more.

Left ArrowRight Arrow

Hourly Observations for October 2, 2016

Temp ( °F °C ) Dew Point ( °F °C ) Humidity (%) Winds ( mph kmh ) Pressure ( in mb ) Visibility ( mi km ) Precip ( " mm )
12:15 am 00:15 Clear 55 13 46 8 72 72 SSE 7 11 30.06 1018 10 16 0.00 0.00
12:35 am 00:35 Clear 55 13 46 8 72 72 SSE 8 13 30.06 1018 10 16 0.00 0.00
12:55 am 00:55 Clear 54 12 46 8 77 77 SSE 7 11 30.09 1019 10 16 0.00 0.00
1:15 am 01:15 Clear 54 12 46 8 77 77 SE 9 15 30.09 1019 10 16 0.00 0.00
1:35 am 01:35 Clear 52 11 45 7 77 77 SE 6 9 30.09 1019 10 16 0.00 0.00
1:55 am 01:55 Clear 52 11 45 7 77 77 SE 6 9 30.09 1019 10 16 0.00 0.00
2:15 am 02:15 Clear 52 11 45 7 77 77 SE 3 6 30.09 1019 10 16 0.00 0.00
2:35 am 02:35 Clear 50 10 45 7 82 82 SE 6 9 30.09 1019 10 16 0.00 0.00
2:55 am 02:55 Clear 48 9 45 7 87 87 Calm 30.12 1020 10 16 0.00 0.00
3:15 am 03:15 Clear 48 9 43 6 82 82 Calm 30.12 1020 10 16 0.00 0.00
3:35 am 03:35 Clear 48 9 43 6 82 82 SE 3 6 30.12 1020 10 16 0.00 0.00
3:55 am 03:55 Clear 48 9 45 7 87 87 SE 3 6 30.06 1018 10 16 0.00 0.00
4:15 am 04:15 Clear 48 9 46 8 94 94 SE 5 7 30.06 1018 10 16 0.00 0.00
4:35 am 04:35 Clear 48 9 45 7 87 87 SE 5 7 30.06 1018 10 16 0.00 0.00
4:55 am 04:55 Clear 48 9 45 7 87 87 SE 5 7 30.06 1018 10 16 0.00 0.00
5:15 am 05:15 Clear 48 9 45 7 87 87 SE 5 7 30.06 1018 10 16 0.00 0.00
5:35 am 05:35 Clear 48 9 46 8 94 94 SE 5 7 30.06 1018 10 16 0.00 0.00
5:55 am 05:55 Clear 48 9 46 8 94 94 SE 5 7 30.06 1018 10 16 0.00 0.00
6:15 am 06:15 Clear 50 10 46 8 88 88 SE 6 9 30.06 1018 10 16 0.00 0.00
6:35 am 06:35 Clear 48 9 46 8 94 94 SE 3 6 30.06 1018 10 16 0.00 0.00
6:55 am 06:55 Clear 50 10 46 8 88 88 SE 6 9 30.06 1018 10 16 0.00 0.00
7:15 am 07:15 Clear 50 10 46 8 88 88 SE 7 11 30.06 1018 10 16 0.00 0.00
7:35 am 07:35 Sunny 52 11 46 8 82 82 SE 7 11 30.06 1018 10 16 0.00 0.00
7:55 am 07:55 Sunny 52 11 46 8 82 82 SE 7 11 30.06 1018 10 16 0.00 0.00
8:15 am 08:15 Sunny 52 11 48 9 88 88 SE 5 7 30.09 1019 10 16 0.00 0.00
8:35 am 08:35 Sunny 52 11 48 9 88 88 SE 7 11 30.09 1019 10 16 0.00 0.00
8:55 am 08:55 Sunny 54 12 48 9 82 82 SE 9 15 30.06 1018 10 16 0.00 0.00
9:15 am 09:15 Sunny 55 13 50 10 82 82 SSE 9 15 30.03 1017 10 16 0.00 0.00
9:35 am 09:35 Sunny 57 14 50 10 77 77 SSE 12 19 30.06 1018 10 16 0.00 0.00
9:55 am 09:55 Sunny 61 16 50 10 68 68 SE 10 17 30.06 1018 10 16 0.00 0.00
10:15 am 10:15 Sunny 63 17 52 11 68 68 SSE 12 19 30.03 1017 10 16 0.00 0.00
10:35 am 10:35 Sunny 66 19 50 10 56 56 S 13 20 30.03 1017 10 16 0.00 0.00
10:55 am 10:55 Sunny 68 20 52 11 56 56 SSE 14 22 30.03 1017 10 16 0.00 0.00
11:15 am 11:15 Sunny 72 22 52 11 50 50 SE 15 24 30.00 1016 10 16 0.00 0.00
11:35 am 11:35 Sunny 72 22 52 11 50 50 SSE 14 22 30.00 1016 10 16 0.00 0.00
11:55 am 11:55 Sunny 73 23 52 11 47 47 S 12 19 30.00 1016 10 16 0.00 0.00
12:15 pm 12:15 Sunny 75 24 54 12 47 47 SE 13 20 29.94 1014 10 16 0.00 0.00
12:35 pm 12:35 Sunny 75 24 54 12 47 47 S 15 24 29.94 1014 10 16 0.00 0.00
12:55 pm 12:55 Sunny 75 24 54 12 47 47 S 17 28 29.94 1014 10 16 0.00 0.00
1:15 pm 13:15 Sunny 79 26 54 12 42 42 S 13 20 29.94 1014 10 16 0.00 0.00
1:35 pm 13:35 Sunny 79 26 54 12 42 42 S 15 24 29.94 1014 10 16 0.00 0.00
1:55 pm 13:55 Sunny 79 26 54 12 42 42 SSE 15 24 29.91 1013 10 16 0.00 0.00
2:15 pm 14:15 Sunny 79 26 54 12 42 42 SSE 14 22 29.91 1013 10 16 0.00 0.00
2:35 pm 14:35 Sunny 81 27 54 12 39 39 SSE 15 24 29.91 1013 10 16 0.00 0.00
2:55 pm 14:55 Sunny 81 27 54 12 39 39 S 17 28 29.88 1012 10 16 0.00 0.00
3:15 pm 15:15 Sunny 81 27 54 12 39 39 SSE 12 19 29.88 1012 10 16 0.00 0.00
3:35 pm 15:35 Sunny 81 27 54 12 39 39 S 15 24 29.88 1012 10 16 0.00 0.00
3:55 pm 15:55 Sunny 81 27 54 12 39 39 SSE 17 28 29.88 1012 10 16 0.00 0.00
4:15 pm 16:15 Sunny 81 27 54 12 39 39 SSE 13 20 29.88 1012 10 16 0.00 0.00
4:35 pm 16:35 Sunny 81 27 54 12 39 39 SSE 16 26 29.88 1012 10 16 0.00 0.00
4:55 pm 16:55 Sunny 81 27 54 12 39 39 SSE 13 20 29.83 1010 10 16 0.00 0.00
5:15 pm 17:15 Sunny 81 27 54 12 39 39 SSE 16 26 29.88 1012 10 16 0.00 0.00
5:35 pm 17:35 Sunny 79 26 54 12 42 42 SSE 17 28 29.88 1012 10 16 0.00 0.00
5:55 pm 17:55 Sunny 79 26 54 12 42 42 SSE 15 24 29.88 1012 10 16 0.00 0.00
6:15 pm 18:15 Sunny 79 26 54 12 42 42 SSE 16 26 29.88 1012 10 16 0.00 0.00
6:35 pm 18:35 Sunny 75 24 54 12 47 47 SSE 14 22 29.88 1012 10 16 0.00 0.00
6:55 pm 18:55 Sunny 75 24 54 12 47 47 SSE 10 17 29.88 1012 10 16 0.00 0.00
7:15 pm 19:15 Mostly Sunny 73 23 54 12 50 50 SSE 9 15 29.91 1013 10 16 0.00 0.00
7:35 pm 19:35 Clear 70 21 54 12 57 57 SE 9 15 29.91 1013 10 16 0.00 0.00
7:55 pm 19:55 Clear 68 20 54 12 60 60 SE 9 15 29.91 1013 10 16 0.00 0.00
8:15 pm 20:15 Clear 66 19 54 12 64 64 SE 8 13 29.94 1014 10 16 0.00 0.00
8:35 pm 20:35 Clear 66 19 54 12 64 64 SE 8 13 29.94 1014 10 16 0.00 0.00
8:55 pm 20:55 Clear 66 19 54 12 64 64 SE 9 15 29.94 1014 10 16 0.00 0.00
9:15 pm 21:15 Clear 66 19 54 12 64 64 SE 10 17 29.94 1014 10 16 0.00 0.00
9:35 pm 21:35 Clear 66 19 54 12 64 64 SE 9 15 29.94 1014 10 16 0.00 0.00
9:55 pm 21:55 Clear 66 19 54 12 64 64 SE 12 19 29.94 1014 10 16 0.00 0.00
10:15 pm 22:15 Clear 64 18 52 11 64 64 SE 13 20 29.94 1014 10 16 0.00 0.00
10:35 pm 22:35 Clear 64 18 52 11 64 64 SE 13 20 29.94 1014 10 16 0.00 0.00
10:55 pm 22:55 Clear 64 18 52 11 64 64 SE 13 20 29.94 1014 10 16 0.00 0.00
11:15 pm 23:15 Clear 64 18 52 11 64 64 SE 13 20 29.94 1014 10 16 0.00 0.00
11:35 pm 23:35 Clear 64 18 52 11 64 64 SE 14 22 29.94 1014 10 16 0.00 0.00
11:55 pm 23:55 Clear 63 17 52 11 68 68 SE 14 22 29.94 1014 10 16 0.00 0.00

Powered by AerisWeather